Theta_e
320 319 318 317 316 316 318 319 323 323 322 325 325 325 325 324 325 324 324 325 325 325 326 327 327 327 327 326 327 327 327 327 326 326 327 328 326 326 327 327 328 328 329 331 332 332 333 332 332 332 332 333 334 334 335 333 330 329 327 324 323 321 319 319 318 317 317 316 315 313 312 310 309 309 310 311 314 319 324 328 331 332 333 334 334 334 334 334 334 334 334 333 331 329 328 328 327
320 319 317 317 317 317 319 319 322 323 322 324 324 325 325 323 324 324 325 325 325 325 324 325 326 326 326 325 327 327 326 326 326 326 326 326 325 326 327 327 329 329 329 331 332 333 333 333 333 332 331 333 334 334 334 332 330 329 327 325 323 321 320 319 319 318 316 316 315 312 311 310 309 309 309 311 316 322 328 331 332 333 333 334 334 334 334 334 334 334 333 333 331 329 328 327 326
321 320 318 318 317 317 320 319 320 322 323 324 323 324 324 323 324 323 324 325 325 324 322 323 324 324 326 326 326 326 326 327 326 325 325 325 326 326 327 327 329 329 329 331 333 334 334 334 333 332 332 332 333 333 333 332 330 329 327 326 323 320 319 319 319 318 317 316 314 312 310 310 309 309 310 315 322 328 331 333 334 333 333 333 333 333 334 334 333 333 333 332 330 328 326 326 324
320 319 319 319 319 318 320 319 319 321 323 323 322 323 323 322 323 323 325 324 323 323 323 324 324 324 325 324 326 327 327 327 326 325 326 326 326 326 327 327 328 329 329 331 333 334 335 334 333 333 332 331 332 333 332 331 330 329 327 326 324 321 320 321 320 319 319 316 314 311 310 310 309 310 316 324 330 332 333 334 333 333 333 333 333 333 333 333 333 333 333 332 330 327 325 324 323
319 320 319 318 319 320 320 320 320 321 322 322 322 322 321 320 321 322 324 322 322 322 323 324 324 324 323 323 325 326 327 327 326 326 326 326 326 326 326 327 328 329 330 330 332 334 334 334 333 333 332 331 331 332 332 331 330 330 328 326 324 322 322 322 321 321 320 317 314 311 311 310 309 317 326 330 332 333 333 334 333 333 333 333 334 333 333 333 333 332 332 331 329 326 325 323 322
319 319 317 315 317 319 320 321 321 321 321 321 321 321 320 320 321 322 322 321 321 322 322 324 324 323 324 323 324 325 326 327 326 326 326 326 326 326 327 327 328 329 329 330 330 332 333 333 332 332 331 330 331 332 332 331 331 330 329 327 324 323 322 323 323 323 321 318 315 312 311 309 315 326 330 331 332 333 333 333 333 333 333 333 333 333 333 332 332 331 331 330 328 325 324 323 322
319 318 317 315 316 318 319 322 322 322 321 320 320 320 319 320 321 320 320 321 322 322 322 324 325 324 324 323 323 324 324 325 325 325 325 325 325 326 328 328 328 329 329 329 330 331 331 332 332 332 331 330 331 332 332 332 331 330 327 325 324 323 322 323 323 322 320 318 316 313 311 312 322 329 330 331 332 333 333 333 332 333 333 333 333 332 332 332 331 331 330 329 326 324 323 322 321
319 318 317 316 317 317 319 321 321 322 321 320 319 319 319 320 321 320 320 321 321 322 323 324 324 323 322 323 323 323 323 323 324 324 324 324 324 325 327 327 327 328 329 329 330 330 331 331 331 331 330 330 331 331 332 331 332 331 328 325 325 324 324 325 323 320 320 318 316 314 313 318 327 329 329 332 332 332 332 332 332 332 333 333 332 331 330 331 331 329 329 327 324 322 322 321 320
320 318 316 316 317 317 318 319 320 320 320 319 319 320 320 320 321 320 320 321 321 321 322 323 324 322 321 324 323 324 323 323 323 323 323 323 323 324 325 326 326 328 329 329 329 330 330 331 331 331 330 330 331 332 332 331 331 331 330 329 328 327 327 327 325 323 323 321 319 316 316 322 328 329 330 331 332 332 332 332 332 332 332 332 331 329 328 329 328 327 327 325 322 321 320 320 320
320 319 317 317 317 317 318 318 318 318 318 318 319 319 320 320 321 321 321 320 321 321 321 321 323 322 321 323 324 324 323 322 322 322 322 323 323 323 324 326 325 326 328 329 330 330 330 330 331 331 330 330 330 332 332 331 331 331 331 331 330 329 329 329 327 326 326 325 323 321 319 323 327 328 329 331 332 332 332 332 332 332 332 331 330 328 327 327 326 326 326 324 321 320 319 319 320
321 319 317 317 318 318 318 318 318 317 317 316 317 318 318 319 319 320 320 320 319 320 320 320 321 323 322 323 324 324 323 322 322 322 322 322 322 323 324 326 326 326 328 329 330 330 330 331 331 331 330 330 330 331 331 331 331 331 331 331 330 331 330 329 329 327 327 326 326 324 322 324 326 328 329 331 331 331 331 331 331 331 330 329 328 327 326 326 325 325 324 322 320 319 319 319 319
320 320 317 318 319 319 318 318 318 317 316 315 316 317 317 317 318 318 319 319 320 319 320 320 321 323 323 324 324 323 322 323 323 322 322 322 323 322 324 326 327 328 329 329 329 330 330 330 330 330 329 329 330 330 330 330 331 331 331 330 330 331 330 329 329 327 327 326 326 325 323 324 327 328 330 331 331 331 330 331 331 330 330 329 327 327 326 325 324 323 323 321 320 320 320 320 320
320 320 318 319 319 319 318 318 317 316 317 316 316 317 316 316 317 318 319 320 320 320 321 321 321 321 321 323 322 322 323 323 323 322 321 322 323 322 324 326 327 328 328 329 329 329 329 329 329 328 328 328 329 329 329 329 330 331 331 331 330 330 330 329 329 328 327 326 326 325 323 324 328 329 330 331 331 330 329 329 330 329 329 328 327 326 325 324 323 322 322 321 319 319 320 320 320
321 320 319 319 319 318 318 318 317 317 317 316 316 316 315 316 317 317 318 319 319 320 320 320 321 321 321 321 321 322 323 322 323 322 321 321 322 323 324 325 327 328 328 329 329 329 329 329 328 327 327 328 328 328 328 328 330 331 330 331 330 330 330 329 329 328 328 326 325 325 324 324 327 329 330 330 329 329 328 329 329 329 328 328 326 325 324 323 322 321 321 321 319 319 320 320 319
320 320 319 320 319 319 318 318 318 317 317 316 315 314 314 315 316 316 317 318 318 319 319 319 320 320 320 319 319 320 320 321 322 321 321 320 322 323 324 325 326 327 328 328 328 329 329 328 328 327 327 327 328 328 328 328 329 330 330 331 330 330 330 329 328 328 328 326 324 323 323 323 325 328 329 329 328 328 328 327 328 328 327 327 325 324 323 323 322 321 321 321 320 319 320 319 318
319 319 319 320 320 320 319 318 317 318 318 315 315 314 314 315 315 316 317 317 318 318 317 319 320 319 319 318 317 318 318 321 321 320 320 320 321 323 324 325 326 327 327 327 328 328 328 328 327 326 326 326 327 328 328 328 328 329 330 330 330 330 330 329 328 328 327 325 323 322 322 322 323 327 328 328 327 326 326 326 326 327 326 326 324 324 323 322 322 321 321 321 320 320 320 319 318
318 319 320 321 320 320 319 318 317 318 318 316 315 313 314 316 315 315 315 315 317 318 317 318 318 317 317 317 316 316 316 319 321 320 320 320 321 323 324 325 326 326 327 326 327 327 327 327 327 327 326 326 327 327 327 328 328 329 329 330 330 329 329 329 328 328 326 325 324 323 323 322 322 326 327 327 326 325 325 325 325 325 325 325 324 323 322 321 321 320 320 320 320 320 319 318 318
318 319 320 321 320 319 318 317 318 318 317 317 316 314 314 316 316 315 315 316 317 317 318 317 317 316 316 316 316 316 316 317 319 321 320 319 320 322 323 324 325 325 326 326 326 326 326 326 326 327 327 326 327 327 326 327 327 328 328 329 329 328 329 329 328 327 326 325 324 324 324 322 322 324 326 325 325 325 325 324 324 324 324 324 322 321 320 320 320 319 318 318 319 318 318 318 317
320 320 320 321 319 319 319 318 319 317 317 318 318 315 314 315 316 315 315 317 318 317 318 318 317 317 317 317 316 316 316 316 317 320 321 319 319 320 322 322 323 323 324 324 325 325 324 325 325 326 327 326 326 326 326 326 326 326 327 328 329 328 328 329 328 326 325 324 324 324 323 322 321 322 324 324 323 323 323 324 323 323 322 321 319 316 316 319 320 318 317 318 319 319 318 317 315
320 321 320 320 319 319 319 319 319 318 318 318 319 317 315 315 315 315 316 317 317 317 317 318 318 318 317 317 317 316 316 316 316 318 320 320 319 319 319 320 321 321 322 323 323 323 323 323 324 324 325 325 325 325 325 325 326 326 326 327 328 328 328 328 327 326 325 324 324 324 323 323 322 321 322 322 321 321 321 323 323 322 321 318 315 312 313 316 317 316 317 319 319 319 317 315 314
320 320 319 320 319 319 319 318 318 318 317 318 318 317 316 316 315 315 316 316 316 318 318 317 317 317 317 317 316 316 316 316 315 315 317 319 320 320 319 318 318 319 320 321 321 320 320 321 322 322 323 324 325 325 324 325 325 325 326 327 328 328 328 327 326 325 324 324 324 324 323 323 322 321 320 320 320 320 322 322 322 319 316 313 312 312 315 316 317 318 319 319 318 317 315 313 313
318 319 319 319 319 318 319 318 318 317 316 316 317 316 317 317 316 316 316 316 317 318 318 317 317 317 317 317 317 317 316 316 315 315 315 315 317 318 320 319 318 317 317 317 318 317 318 319 319 320 321 322 324 325 324 324 325 325 325 326 327 327 326 326 325 324 324 324 324 324 323 323 322 321 320 320 319 320 320 320 317 315 312 312 313 316 318 318 318 318 318 318 316 314 312 312 311
318 318 319 319 318 318 318 318 317 316 315 316 316 316 316 316 316 317 317 317 317 317 317 317 317 316 317 317 317 317 317 317 316 315 315 315 315 316 317 319 319 318 317 316 316 316 316 316 317 318 320 321 322 323 323 324 324 324 324 325 326 327 326 325 325 324 324 325 324 323 323 322 322 320 320 320 319 319 318 316 315 314 315 315 316 317 318 318 318 316 316 316 313 311 310 310 309
316 317 317 317 317 317 317 317 316 315 315 316 316 314 315 315 316 317 317 317 317 316 316 316 316 316 317 317 317 317 317 317 316 316 315 315 315 315 315 317 319 319 318 316 315 315 315 315 315 316 318 319 321 322 322 322 323 324 324 324 325 326 326 325 325 325 324 324 324 323 322 322 321 320 319 319 319 318 317 316 315 313 313 314 316 316 317 317 316 315 315 314 310 309 309 308 308
314 315 316 316 316 315 315 315 314 314 314 314 313 313 315 315 315 316 316 316 316 315 315 315 315 316 316 316 316 316 317 316 316 315 315 314 315 315 315 316 317 318 318 317 315 314 315 314 314 315 316 318 319 320 321 321 322 323 323 324 325 326 325 326 325 324 323 323 323 322 321 321 321 320 319 318 318 317 316 316 315 312 311 312 314 315 315 315 315 315 314 310 307 308 307 307 307
314 314 314 314 314 313 312 311 311 311 312 312 311 312 313 313 313 313 314 313 314 314 314 314 313 314 314 315 315 315 315 315 315 314 314 314 314 314 314 315 316 316 317 318 316 315 315 314 314 314 315 316 317 319 320 320 321 321 322 323 326 326 325 325 324 322 322 322 323 322 320 320 319 319 318 317 316 315 314 314 313 312 312 314 314 314 313 313 315 314 309 306 306 307 306 306 307
311 311 311 310 310 310 309 309 309 309 309 309 309 310 312 312 311 311 312 311 312 312 312 312 312 313 313 313 314 313 314 313 313 313 313 313 313 313 313 314 315 315 316 317 317 316 315 314 314 314 315 315 316 318 320 320 319 320 321 321 323 325 325 325 323 322 322 322 322 322 320 319 319 319 318 317 315 314 311 310 310 310 312 314 314 313 312 314 315 310 304 304 306 306 306 306 306
308 308 308 309 309 309 308 308 308 308 308 309 309 309 311 311 310 311 311 310 311 311 311 311 312 312 312 312 312 312 312 312 312 312 312 312 312 313 313 313 314 315 315 316 317 317 316 315 314 314 314 315 315 317 318 319 319 319 319 320 321 321 322 324 324 322 322 322 322 321 320 320 319 318 318 317 315 313 309 307 307 309 311 313 312 311 313 314 310 304 302 304 305 305 304 304 304
307 307 307 309 309 309 309 309 309 309 309 309 309 309 310 310 310 311 311 310 311 311 311 311 311 311 311 311 311 311 311 311 311 311 312 311 311 312 312 312 313 314 314 315 316 317 317 316 315 314 314 314 315 315 317 319 319 318 319 319 319 320 321 323 323 322 321 321 321 321 320 319 319 318 317 317 316 313 308 306 307 308 310 309 309 311 312 310 304 302 303 305 305 305 303 302 301
307 308 308 308 310 310 310 310 309 308 309 308 308 310 310 310 311 311 310 310 310 310 310 310 310 311 310 310 310 310 310 310 310 310 310 310 310 310 310 311 311 312 312 313 315 317 317 316 315 315 315 314 315 315 316 317 318 318 319 320 320 320 321 322 322 322 322 321 321 321 320 319 318 317 317 317 316 313 308 306 307 308 308 307 308 309 308 304 303 304 305 305 305 304 302 300 298
308 309 308 309 311 311 309 308 308 308 309 308 308 310 310 310 310 309 309 309 309 309 310 310 310 310 309 309 309 309 309 309 310 310 310 310 310 310 310 310 310 310 311 312 313 315 316 317 316 315 315 314 314 315 315 316 317 318 319 320 321 321 322 322 322 322 322 321 320 320 319 318 318 317 317 316 316 313 308 307 307 307 306 306 306 306 304 304 305 305 305 304 303 301 300 298 296
308 309 310 310 310 310 308 308 308 308 308 307 308 308 308 308 309 308 307 308 308 309 309 309 309 309 309 309 309 309 310 310 311 310 310 310 310 310 310 310 310 310 310 310 310 311 313 315 316 315 315 315 314 315 315 315 316 317 318 319 319 320 322 322 322 322 321 320 319 319 318 317 317 317 316 316 316 312 307 307 307 306 306 305 305 305 304 305 305 304 302 301 299 298 296 295 294
308 308 308 308 308 308 307 307 307 308 307 307 308 308 308 308 308 307 307 307 308 309 309 310 310 310 310 310 310 310 310 310 310 310 309 309 309 310 310 310 310 309 309 309 309 309 310 312 314 315 315 315 315 315 315 315 315 316 317 318 318 319 319 320 320 320 320 319 318 318 317 317 316 316 316 315 315 312 307 307 306 305 305 304 304 304 305 305 304 302 299 298 296 295 294 293 293
308 308 307 307 307 307 307 307 307 308 307 307 307 308 308 308 308 309 308 309 309 309 310 310 310 310 310 310 309 309 310 309 308 308 308 308 308 308 308 309 309 308 308 308 308 308 308 309 311 313 313 314 314 314 315 314 314 315 316 316 317 317 319 318 318 317 317 317 317 317 317 317 315 315 315 315 314 311 307 307 305 303 303 303 303 303 303 304 302 300 297 295 294 293 293 292 292
308 308 307 308 307 307 307 307 307 307 307 308 308 308 308 308 309 310 310 310 309 309 309 309 309 309 309 309 309 309 309 307 305 305 306 306 306 306 306 307 307 308 308 308 308 308 307 308 309 311 312 313 313 314 314 314 314 314 315 316 316 316 318 318 317 316 316 316 316 316 317 316 315 315 315 314 314 310 306 306 304 302 302 301 302 302 302 302 301 298 296 294 293 292 292 292 292
307 307 307 307 307 307 307 307 307 307 307 307 308 308 308 308 308 309 309 309 309 309 309 309 309 309 309 309 308 307 304 302 302 302 303 304 304 305 305 305 306 306 307 308 308 308 308 307 308 309 311 312 312 313 313 313 313 314 314 315 316 316 317 318 318 316 316 316 315 315 315 315 314 314 314 314 313 309 306 304 302 300 300 300 300 301 301 301 299 297 295 294 293 292 292 292 292
307 307 308 307 307 307 307 307 308 307 307 307 308 308 308 308 307 308 309 309 308 309 309 309 309 309 308 306 303 301 299 299 299 300 300 301 302 303 304 304 305 306 306 307 307 307 307 307 307 308 310 310 311 311 312 312 312 313 313 314 315 316 316 318 318 316 315 314 314 314 314 314 314 314 314 313 312 309 305 303 300 299 299 299 300 300 300 298 297 295 293 293 293 292 292 292 292
307 307 307 307 307 307 307 307 307 308 307 307 307 307 307 308 307 308 308 308 308 308 308 307 307 305 303 300 298 297 297 297 298 298 299 300 300 301 302 303 304 305 305 306 306 306 306 306 306 307 309 310 310 310 310 311 311 312 312 313 314 315 316 317 317 316 314 314 314 313 313 313 314 314 313 312 312 310 307 302 298 298 298 298 299 298 297 296 294 293 292 292 292 292 292 291 291
306 307 307 306 307 307 307 307 307 307 307 307 307 307 307 307 307 307 307 308 308 306 303 301 300 299 298 296 295 294 294 296 297 297 298 299 299 300 300 301 302 303 304 304 304 305 305 305 306 307 308 309 309 309 309 310 310 310 311 311 312 313 314 315 316 316 315 314 314 314 313 313 312 312 311 311 310 310 308 303 298 296 297 297 298 297 296 295 294 292 292 292 292 292 292 292 292
306 307 306 306 307 307 307 307 307 306 306 306 306 307 306 306 307 307 307 308 306 301 298 296 296 295 295 293 292 291 292 293 294 295 297 297 298 299 299 300 300 301 302 302 303 303 303 304 305 306 307 307 307 308 308 309 309 309 309 309 310 311 312 313 314 314 314 314 313 313 313 313 312 311 310 309 309 309 308 305 299 295 296 296 295 294 294 294 294 293 293 292 292 292 292 292 292
307 307 307 306 306 307 307 306 306 306 306 306 306 306 306 306 306 306 305 305 302 299 297 296 294 293 293 292 291 290 289 290 291 293 294 295 296 297 298 299 299 299 300 301 302 302 303 304 304 305 305 306 306 307 307 308 308 308 308 308 309 310 311 311 312 312 312 312 312 311 311 311 310 310 309 308 308 307 307 306 301 297 296 295 294 294 294 293 293 293 292 292 292 292 292 292 292
306 307 307 306 306 306 306 306 306 306 305 306 306 305 306 305 305 305 304 303 300 298 297 295 293 292 291 290 289 289 288 289 290 290 291 293 294 296 297 298 299 299 300 300 301 302 302 303 303 304 304 305 305 306 306 307 307 308 308 308 308 309 309 310 310 310 311 311 310 310 310 309 308 308 307 306 306 306 306 304 300 297 296 295 295 295 294 292 291 291 291 291 291 291 291 290 290
305 306 307 306 306 306 306 306 306 305 305 305 305 304 305 305 305 305 305 303 300 297 296 294 292 291 290 289 288 287 287 288 289 289 290 291 292 294 296 297 298 299 299 300 301 301 302 302 302 303 303 304 304 305 305 306 306 307 307 307 307 308 308 309 309 308 309 309 309 309 309 308 307 307 307 306 305 305 304 302 299 296 295 295 295 294 293 291 290 290 290 289 290 290 290 290 290
305 305 305 305 305 305 306 305 305 305 304 304 304 304 304 304 305 304 304 304 301 298 295 293 291 290 289 288 287 287 286 286 287 288 289 290 291 292 293 294 296 297 298 299 300 301 301 301 301 302 302 303 303 304 304 305 305 305 306 306 306 306 306 307 307 307 307 307 307 307 307 306 306 306 305 305 304 303 302 300 298 297 296 296 295 294 293 292 290 290 289 289 289 289 289 289 289
305 303 303 304 304 304 304 304 304 304 303 304 304 304 304 304 304 304 303 303 302 299 295 292 290 289 288 287 286 286 285 285 285 286 287 289 289 290 291 292 294 296 297 298 298 299 300 300 300 301 301 301 302 302 302 303 303 304 304 304 304 305 304 305 305 306 305 306 306 305 305 305 304 303 303 302 301 300 300 299 297 297 297 297 296 295 293 292 290 290 289 288 288 288 288 288 288
303 302 302 302 302 303 303 303 304 303 303 304 304 303 304 304 304 303 303 303 301 298 294 291 290 288 287 286 286 285 285 285 285 285 286 288 288 289 290 291 293 294 295 296 297 297 298 299 299 299 300 300 300 300 300 301 301 302 302 302 303 303 303 304 304 304 304 304 304 303 303 302 301 300 299 299 298 297 297 297 297 297 298 297 296 294 292 291 290 289 288 288 288 288 288 288 288
301 301 302 302 302 302 302 302 303 304 304 304 304 304 303 304 304 302 302 300 297 296 295 291 289 288 287 286 285 284 284 284 284 285 286 287 288 289 290 291 292 293 294 295 296 296 296 297 297 298 298 298 298 298 298 299 299 299 300 300 301 301 301 302 302 302 302 302 301 300 300 299 298 297 297 297 296 296 295 296 296 296 296 295 294 292 291 290 290 289 288 288 288 287 287 287 287
300 302 302 303 303 302 302 302 302 304 305 304 303 303 303 304 304 300 296 293 291 293 293 290 288 288 286 285 285 284 284 283 284 285 287 288 289 289 290 290 291 292 293 293 294 294 295 295 295 296 297 297 297 297 297 297 297 298 298 298 298 298 299 299 299 299 298 298 297 297 296 296 296 296 295 295 295 295 294 295 295 296 295 294 293 291 290 290 289 288 288 288 287 287 287 287 287
301 302 302 303 305 304 304 304 303 304 304 302 301 302 303 304 302 297 293 291 290 290 290 288 288 287 286 285 284 284 283 283 283 285 287 288 288 288 289 289 290 290 291 292 292 293 293 294 294 295 296 295 295 296 296 296 296 296 296 296 296 296 296 296 295 295 295 295 294 294 294 294 294 294 294 294 294 294 293 294 294 295 295 295 294 292 290 290 289 289 289 288 288 288 288 287 287
302 302 303 304 305 305 305 304 303 304 303 300 299 300 302 303 300 293 291 290 289 289 288 287 287 286 285 284 284 283 283 283 283 283 284 285 286 287 288 288 289 289 290 290 291 291 292 292 293 294 294 294 294 294 295 295 295 295 295 295 295 295 294 294 294 293 293 293 293 293 292 292 292 292 292 292 293 293 293 293 294 294 294 294 294 294 292 291 291 291 291 290 290 289 288 288 287
303 303 303 304 304 305 305 304 304 304 303 301 299 300 303 303 298 291 290 289 288 288 287 286 286 285 285 284 284 283 283 282 282 282 282 283 285 286 287 288 288 288 289 289 290 290 291 291 292 292 292 293 293 293 293 294 294 294 294 294 294 294 294 293 293 293 293 292 292 292 292 291 291 291 291 291 292 292 292 293 293 293 294 294 294 294 293 292 292 291 291 290 289 289 288 288 287
302 302 302 303 303 303 304 304 304 303 304 303 301 302 302 299 293 290 290 289 288 287 287 286 286 285 285 284 283 283 282 282 282 282 282 283 284 285 286 287 287 287 288 288 289 289 290 290 290 291 291 291 292 292 292 292 292 292 293 293 293 293 293 293 293 293 292 292 292 292 291 291 291 291 291 291 291 291 292 292 293 293 293 293 293 293 293 292 292 291 291 291 290 290 289 288 288
302 301 303 302 301 302 303 303 303 302 303 304 302 302 301 298 294 291 290 289 288 287 287 286 286 285 285 284 283 282 282 281 281 281 282 282 283 284 285 286 286 287 287 287 288 288 288 289 289 290 290 290 291 291 291 291 291 291 292 292 292 292 292 292 292 292 292 292 292 291 291 291 291 291 291 291 291 291 291 292 292 293 293 293 293 292 292 292 292 293 293 293 292 291 290 289 289
302 302 302 300 301 302 302 302 303 302 303 303 302 302 301 301 299 293 290 290 289 287 287 286 285 285 285 284 283 282 281 281 280 280 281 282 283 283 284 285 285 285 286 286 287 287 287 288 288 289 289 289 290 289 290 290 290 290 290 291 291 291 291 291 291 291 291 291 291 291 291 291 291 291 291 291 291 291 291 291 292 292 292 292 292 292 292 292 293 293 293 293 291 290 290 290 290
301 301 300 301 302 302 301 302 302 302 302 302 301 301 300 301 300 295 292 292 290 287 287 286 286 285 285 284 283 282 281 281 280 280 280 281 282 282 283 283 284 284 284 285 285 286 286 287 287 288 288 288 288 288 289 289 289 289 289 289 289 289 290 290 290 290 290 290 290 290 290 290 290 290 290 291 291 291 291 291 291 291 291 292 292 292 292 292 292 292 292 291 291 290 291 291 291
301 301 300 301 302 301 301 301 301 301 301 301 301 300 300 300 299 296 295 293 291 289 287 286 286 285 284 283 282 282 281 280 280 279 279 280 281 281 282 282 283 283 283 284 284 284 285 285 285 286 286 286 286 287 287 287 288 288 288 288 288 288 288 288 288 289 289 289 289 289 289 289 289 290 290 290 290 290 290 291 291 291 291 291 291 291 291 291 291 291 291 291 291 291 291 291 291
301 301 301 301 300 300 301 301 301 301 301 301 301 301 301 298 293 293 294 292 291 289 287 286 285 284 283 283 282 281 281 280 279 279 279 279 280 280 281 281 282 282 282 283 283 283 283 284 284 284 284 285 285 285 285 285 286 286 286 286 286 287 287 287 287 287 287 288 288 288 288 288 288 288 289 289 289 289 290 290 290 290 291 291 291 291 291 291 291 291 291 291 291 291 291 291 291
301 301 301 301 301 301 301 301 301 301 301 301 300 301 301 295 290 291 291 290 290 289 287 286 285 283 283 282 281 281 280 279 279 278 278 278 279 280 280 280 281 281 281 282 282 282 282 282 283 283 283 283 283 283 284 284 284 284 284 285 285 285 285 285 285 286 286 286 286 287 287 287 287 287 287 288 288 288 289 289 289 290 290 290 291 291 291 291 291 291 291 291 291 291 291 291 291
Wind_Speed
9 9 7 6 6 6 8 8 4 5 5 9 9 10 6 5 3 3 5 3 3 1 3 3 3 3 5 6 6 8 10 11 9 7 6 6 7 10 11 10 8 14 19 22 24 26 28 29 28 25 24 25 25 25 24 23 22 20 19 19 19 17 15 14 13 12 11 11 10 10 12 13 13 13 13 13 13 14 14 14 15 15 14 14 13 13 13 12 12 11 10 9 10 12 11 9 8
9 10 7 5 5 6 5 5 3 5 6 9 9 11 5 4 4 6 8 5 4 3 4 6 6 7 10 11 10 10 11 13 15 14 16 18 17 17 16 10 7 13 19 22 23 26 27 28 29 25 23 23 24 24 24 24 23 20 19 19 18 17 15 14 12 12 11 11 10 9 12 13 14 14 14 14 15 15 15 15 16 16 16 15 14 14 13 12 12 11 10 11 12 11 9 8 8
10 12 10 5 4 5 5 4 5 6 8 9 8 8 5 4 7 7 8 6 5 6 9 11 9 8 9 11 9 10 9 9 16 19 21 23 21 20 19 12 7 12 19 22 22 23 23 25 29 26 22 22 23 23 23 24 23 21 20 20 18 16 14 13 13 12 11 11 10 10 12 14 15 14 15 17 17 16 16 17 17 17 17 16 15 15 14 13 12 12 11 12 11 9 8 8 7
10 9 9 6 4 4 3 4 6 6 8 8 7 5 6 6 9 8 7 5 5 8 11 9 8 7 8 9 6 8 10 10 15 18 17 19 20 21 21 15 10 12 18 23 23 22 20 22 28 26 22 20 20 22 24 24 24 22 21 20 18 16 14 13 13 12 11 11 10 10 13 15 16 15 17 18 17 17 18 18 17 18 17 17 17 15 15 14 13 13 12 12 10 8 8 8 8
7 7 7 6 4 2 2 4 5 7 8 6 5 3 5 7 9 8 4 4 8 10 10 7 6 6 7 9 5 5 9 10 11 14 16 19 19 18 18 17 14 15 18 23 25 24 23 23 26 26 23 21 20 22 24 25 24 23 21 19 18 16 15 14 13 12 12 11 11 11 14 16 16 17 17 17 18 19 19 18 18 18 18 17 17 16 16 15 14 14 14 12 8 7 8 8 9
4 4 4 4 3 1 3 6 6 9 8 6 5 1 2 5 4 4 3 5 8 9 10 8 7 6 6 8 8 9 12 11 8 9 12 16 17 17 14 14 15 17 19 23 27 27 27 25 25 25 23 21 20 21 24 24 23 21 19 18 17 16 15 14 13 13 12 12 11 12 15 17 17 18 17 17 19 19 20 19 19 19 18 18 18 17 16 16 16 16 14 10 8 8 8 9 9
4 3 3 3 3 3 6 9 9 9 8 7 6 3 3 3 2 3 5 6 5 7 7 7 6 6 7 7 8 11 13 12 12 12 12 12 13 15 12 10 12 15 18 22 26 28 28 27 25 24 22 21 20 20 21 22 20 19 18 17 16 15 15 14 13 12 12 12 12 13 17 18 17 18 18 18 19 20 20 20 20 19 19 18 18 18 17 17 18 16 13 9 8 9 9 9 8
6 4 3 4 4 4 7 9 10 9 4 3 6 7 5 3 4 7 9 7 5 5 6 7 5 5 8 7 8 11 13 13 13 13 14 14 12 11 12 11 12 16 20 23 26 27 27 26 24 23 21 19 17 17 18 19 19 18 17 16 16 16 15 14 13 13 12 13 12 14 17 18 17 18 19 19 20 21 21 21 21 20 19 19 18 18 19 18 16 13 11 9 10 10 10 9 9
5 4 3 4 5 5 7 8 8 8 4 3 5 10 8 5 7 10 11 9 8 8 7 5 4 5 7 6 10 15 17 16 15 13 12 14 14 13 14 13 12 15 20 24 25 26 26 25 23 22 20 18 16 16 16 17 17 17 17 17 17 17 16 15 14 14 13 13 13 15 17 18 18 20 20 20 21 21 21 21 21 21 20 19 19 18 18 16 14 12 10 10 11 11 10 10 8
6 5 3 4 5 7 8 8 7 6 5 6 5 10 11 8 8 10 12 12 10 9 7 3 5 10 10 10 12 15 17 17 15 13 11 12 13 12 14 14 12 14 19 23 24 23 24 24 23 22 20 19 18 18 17 16 17 17 17 17 18 17 16 15 15 15 14 14 15 15 18 19 20 21 21 21 22 22 22 22 22 22 21 20 20 18 15 14 13 11 11 12 12 11 11 9 8
7 5 3 4 6 8 8 7 7 5 4 4 6 12 13 10 9 11 12 13 13 10 8 5 4 9 11 11 12 13 17 16 14 13 11 10 11 11 12 14 15 16 20 23 23 23 24 24 23 22 21 21 21 20 19 17 17 18 18 18 18 17 16 16 16 16 15 15 16 16 18 21 21 21 21 21 22 23 24 24 24 24 22 20 18 16 14 13 13 12 12 13 12 11 10 9 7
7 5 4 6 8 8 7 7 7 6 5 5 7 11 9 8 8 10 12 12 12 10 9 8 4 5 6 6 9 15 18 14 14 15 14 10 11 13 13 14 17 20 21 23 23 23 24 24 24 23 22 22 23 22 21 19 19 20 20 19 19 19 18 18 18 17 17 17 17 17 19 22 22 21 22 22 23 24 24 26 25 25 23 19 17 15 14 13 12 12 13 13 12 11 10 8 6
8 6 5 8 8 8 8 7 6 5 7 6 6 8 6 7 9 11 12 10 11 10 7 8 6 6 6 7 11 15 17 15 14 14 14 12 13 14 14 14 17 21 22 23 23 24 24 24 24 23 24 24 25 24 22 21 20 21 21 20 20 20 20 20 19 19 19 19 19 17 18 21 21 20 21 23 24 25 25 24 24 24 22 18 16 13 12 12 12 12 13 12 12 11 9 6 3
9 7 7 8 7 8 9 7 6 6 7 3 4 8 8 8 10 11 10 9 11 9 6 6 5 6 6 7 8 8 12 16 14 13 13 13 14 14 15 15 17 21 22 23 24 24 24 24 24 24 24 24 26 26 24 22 21 21 21 21 22 22 22 21 21 21 21 21 20 18 18 21 22 20 21 23 24 24 23 22 23 23 21 18 13 11 11 11 11 12 12 12 11 9 7 4 4
9 6 6 8 8 9 8 7 7 7 5 1 4 7 6 9 12 11 10 11 9 7 8 7 5 4 3 4 8 12 17 18 15 14 12 13 13 15 16 16 18 20 22 22 23 23 23 24 23 24 24 23 25 26 25 24 22 22 22 22 23 24 23 23 23 23 23 21 19 18 17 19 21 21 22 24 24 22 21 22 22 21 20 16 14 13 12 12 11 12 13 11 11 9 7 5 6
8 6 6 8 10 10 7 6 5 7 4 1 5 6 5 10 12 11 11 11 9 7 9 7 7 6 6 8 13 18 21 20 17 15 13 14 14 15 16 17 19 21 22 22 22 23 24 24 23 23 23 22 24 25 25 25 23 22 22 23 24 25 25 25 26 25 23 21 19 18 17 18 20 21 22 22 22 22 21 20 18 17 16 15 15 15 13 13 13 13 14 11 11 10 8 8 9
6 6 8 9 10 10 8 8 6 6 4 3 7 8 7 9 10 10 11 12 10 10 10 9 10 10 10 11 14 18 21 21 19 18 14 14 15 16 17 19 21 22 23 23 23 24 25 24 23 22 21 20 21 23 25 25 25 23 23 24 25 26 27 27 28 27 24 20 18 16 16 18 20 20 19 18 18 18 17 14 12 12 14 14 14 13 13 14 14 15 14 12 11 10 10 11 11
7 6 9 11 11 11 10 10 8 5 6 6 8 9 9 10 9 7 8 10 11 11 12 11 12 12 13 14 16 18 21 21 21 19 17 16 16 18 19 20 22 23 23 24 25 25 25 24 24 22 21 20 20 22 25 26 26 24 24 24 24 24 27 30 30 29 26 21 19 16 15 18 20 21 17 14 14 14 13 11 11 12 12 12 12 12 13 14 16 17 15 13 11 11 12 12 11
10 7 9 11 11 12 11 12 11 9 11 12 11 11 10 10 10 7 8 12 12 12 11 10 12 13 15 18 19 19 20 22 22 21 20 18 17 18 20 21 22 22 23 24 24 24 25 24 23 22 22 22 21 22 25 27 26 25 24 24 25 25 28 31 30 29 25 21 17 14 16 18 20 21 18 16 15 14 14 13 13 13 12 11 12 13 14 16 19 19 16 14 12 12 13 12 11
12 10 10 12 12 12 12 13 15 14 15 15 14 12 9 10 11 9 10 15 15 14 12 11 14 15 16 17 18 19 20 21 22 22 22 21 19 19 19 20 22 23 23 23 22 22 23 23 22 23 23 23 22 23 25 27 27 26 25 23 25 27 30 31 30 28 23 18 14 13 16 18 19 21 20 19 17 17 17 17 16 16 15 15 16 17 18 20 21 19 16 14 13 13 13 13 12
8 9 11 11 7 9 11 12 15 14 14 15 14 12 12 13 12 11 12 14 14 15 14 14 17 18 16 16 17 18 19 20 22 22 22 23 22 21 21 20 21 22 22 21 21 20 20 21 22 22 24 24 24 25 26 28 27 27 26 23 25 30 33 32 29 26 22 18 15 14 16 17 19 22 21 20 20 20 20 19 19 19 19 19 19 20 21 21 20 19 17 17 15 14 14 14 13
7 10 14 11 5 7 9 9 12 13 11 12 12 12 13 12 13 15 15 15 13 14 14 13 17 18 18 18 19 20 21 22 22 22 22 22 23 24 24 23 22 23 22 21 21 20 19 20 21 22 23 24 25 25 27 29 29 28 28 25 26 33 33 29 26 25 24 20 16 16 16 17 21 23 22 21 22 23 23 22 22 21 21 21 21 23 23 22 20 20 20 19 16 15 15 14 14
8 11 13 12 10 11 9 6 9 10 9 11 10 10 10 10 16 18 20 24 20 17 18 18 18 18 19 21 22 23 24 25 25 25 25 23 23 23 24 25 26 26 25 23 21 20 19 19 20 21 22 24 25 26 27 29 29 29 29 28 28 33 32 28 27 26 23 19 17 17 16 17 21 23 21 22 24 25 24 23 22 22 23 23 24 24 24 23 23 23 21 18 16 16 15 15 14
8 11 11 10 10 11 10 8 8 7 8 12 10 10 11 13 16 17 24 28 21 20 23 22 20 21 24 26 27 28 27 28 29 29 28 27 26 24 24 25 27 29 28 25 22 20 19 18 19 21 22 24 25 27 28 28 29 30 30 30 31 33 33 30 28 25 21 21 19 17 17 17 20 21 21 21 23 23 22 22 22 23 24 25 25 25 25 24 24 23 20 18 18 17 16 15 15
10 10 10 7 7 9 8 9 10 10 11 12 12 14 16 18 19 21 30 29 21 21 23 24 27 29 31 31 31 32 31 31 31 31 30 29 29 27 27 27 28 29 28 27 25 22 21 19 20 21 22 24 26 28 29 29 30 31 31 32 34 35 34 31 29 25 23 24 22 19 18 19 20 20 19 20 21 21 21 22 23 24 25 26 26 26 25 25 23 21 19 19 19 18 17 16 16
6 7 8 6 9 9 7 9 11 11 11 10 12 16 18 19 18 19 24 22 19 20 21 24 28 31 32 33 33 32 32 32 31 30 30 30 31 31 30 29 29 28 27 27 28 26 24 22 22 22 23 25 27 29 30 30 30 32 32 32 34 35 33 32 30 29 25 25 24 23 21 21 21 19 18 18 19 20 21 22 24 25 25 26 26 26 26 25 22 20 20 20 19 19 18 17 17
3 7 11 11 12 11 8 10 10 10 12 11 13 16 21 20 14 13 9 4 6 8 15 19 21 25 27 28 28 27 28 27 27 29 30 31 31 31 31 31 31 30 29 30 31 30 28 27 25 24 25 26 27 29 31 31 31 32 33 32 34 35 36 36 35 32 28 26 27 26 23 22 21 19 18 18 19 20 21 22 24 25 25 25 26 26 25 23 22 22 22 21 20 19 18 18 18
7 9 13 13 13 12 9 10 10 10 10 12 14 17 23 21 16 18 9 4 6 7 14 18 19 22 23 24 25 25 26 25 26 29 30 31 31 31 31 32 33 33 33 33 34 34 34 32 29 27 27 27 27 29 31 32 33 33 34 33 34 34 36 41 40 35 31 30 28 26 24 23 21 19 19 19 19 20 20 21 24 25 25 26 26 25 23 23 22 23 23 21 20 20 19 19 19
8 8 11 13 13 13 12 12 10 10 8 8 9 14 20 17 19 23 15 15 20 17 20 23 22 24 24 26 27 28 28 27 28 28 28 29 30 30 31 32 32 33 34 34 36 37 37 35 33 32 31 29 28 29 30 32 34 34 34 34 34 32 33 37 38 34 33 33 31 28 25 24 22 20 20 21 21 20 19 21 23 24 25 25 24 24 23 23 24 24 23 22 21 21 21 20 19
8 8 7 10 12 12 7 7 7 8 8 6 6 10 15 12 11 13 10 13 15 15 19 21 20 20 20 24 24 23 22 20 19 20 20 21 22 24 26 28 30 31 31 32 35 36 37 38 37 36 34 32 30 30 31 32 34 34 34 35 34 34 34 36 37 36 36 35 33 29 26 25 22 20 21 22 22 21 20 21 22 23 24 23 23 23 24 24 24 24 23 23 23 22 22 20 20
8 8 6 6 10 7 2 4 4 5 6 8 9 10 14 12 4 2 4 7 8 12 16 15 15 15 15 19 17 16 16 15 17 18 19 19 19 21 22 23 25 28 29 29 31 33 36 39 39 38 37 36 33 31 30 32 34 34 36 37 36 36 38 39 38 37 35 33 31 27 24 22 21 22 23 24 24 22 21 23 23 23 23 23 24 24 24 25 24 24 24 24 23 23 22 20 20
5 7 8 7 7 6 2 3 3 5 4 6 10 10 12 10 4 2 1 2 4 8 12 10 11 12 14 17 19 21 23 25 27 24 23 22 23 23 23 22 22 24 26 26 28 29 33 37 40 40 39 39 37 33 31 31 34 35 36 38 37 37 38 38 36 34 32 31 28 25 23 23 24 26 26 26 25 23 23 24 24 24 24 25 25 25 25 25 25 25 25 24 23 22 21 21 21
5 6 9 8 8 9 5 1 3 4 5 5 11 11 12 7 2 2 2 1 6 9 13 15 15 17 19 20 24 29 31 31 29 24 23 24 25 26 26 25 24 24 24 24 25 28 31 34 38 39 39 39 39 36 32 30 33 35 36 37 37 37 37 36 35 33 32 30 29 28 28 27 28 29 27 27 26 24 24 25 25 25 26 26 26 26 27 26 26 26 25 24 23 22 21 21 21
5 5 8 9 10 10 7 3 3 3 4 8 11 13 17 14 7 8 9 10 14 18 21 23 23 23 22 22 24 26 26 23 20 21 24 25 24 25 26 26 25 25 25 25 24 26 28 31 34 36 36 37 37 37 34 31 32 35 36 37 38 37 37 37 35 33 33 33 33 35 34 30 29 30 28 27 26 25 25 26 26 27 27 28 28 27 27 26 26 26 25 24 23 22 21 21 21
8 8 8 9 10 11 11 8 1 1 5 10 13 15 20 19 16 19 20 17 19 22 23 22 22 22 22 22 21 20 16 11 12 20 23 23 23 24 24 24 23 24 25 25 24 24 25 26 28 31 33 33 34 35 35 33 32 35 37 37 38 38 38 39 37 35 35 34 34 35 33 28 28 31 29 28 27 26 26 27 28 28 29 28 28 28 27 27 27 27 26 25 23 22 22 22 22
13 12 10 11 12 11 13 12 5 4 9 14 16 17 20 20 16 18 21 21 21 22 20 18 19 20 20 18 13 11 11 11 15 20 20 22 23 24 25 24 23 23 23 23 23 22 22 22 23 26 27 27 30 31 34 34 32 34 37 38 40 40 40 41 39 36 35 35 34 33 32 29 29 31 30 27 27 26 26 28 29 29 29 29 29 28 27 27 27 27 26 26 25 23 23 23 22
10 11 12 13 14 14 14 13 7 5 7 14 17 18 21 20 15 16 21 21 20 20 18 17 16 15 13 9 9 10 11 13 15 16 17 19 20 22 25 24 23 23 22 21 20 18 18 18 20 22 21 21 25 28 31 34 31 33 37 39 42 42 41 42 41 38 35 34 33 32 33 34 33 33 30 27 26 27 27 28 29 30 30 30 29 28 27 26 26 27 25 25 24 24 24 24 24
10 11 12 13 13 14 13 13 9 6 6 13 17 18 21 19 14 15 17 17 17 17 12 9 9 7 7 9 10 11 11 10 10 10 12 13 14 16 19 22 23 23 22 21 19 16 15 15 17 19 17 17 21 24 29 31 30 31 33 35 39 41 41 42 41 38 35 35 35 32 31 34 35 32 30 27 25 27 28 29 30 30 30 30 29 28 27 26 26 26 25 24 24 24 24 24 24
11 9 10 12 10 11 12 12 9 6 6 10 14 15 17 17 14 13 16 17 13 7 8 8 8 8 9 11 12 13 13 12 11 10 10 9 9 9 10 14 17 19 20 20 18 16 14 14 14 15 14 14 16 20 25 28 28 29 28 30 35 38 40 40 39 38 37 38 38 36 33 35 35 31 29 26 25 27 29 30 30 30 30 30 29 28 28 27 27 26 26 26 26 26 26 25 25
8 8 9 11 9 8 9 6 3 4 6 10 13 12 15 16 12 13 15 12 1 10 13 12 12 11 10 11 12 14 15 16 16 15 13 13 11 9 8 7 8 13 16 17 16 14 12 12 12 12 13 14 14 17 23 25 26 28 27 27 31 34 36 37 38 37 37 38 38 37 37 37 35 31 28 26 25 27 30 31 31 30 30 29 29 27 26 26 26 26 27 27 28 28 28 28 27
9 10 10 10 11 11 12 8 4 5 9 11 11 11 11 10 6 6 3 4 9 11 11 12 13 11 11 11 13 15 15 18 19 19 18 16 15 13 11 7 4 5 8 11 12 11 10 9 9 10 12 14 15 17 21 22 23 25 25 27 29 30 33 35 35 35 35 36 35 35 35 34 32 30 27 25 25 27 30 32 32 32 31 30 28 26 25 25 26 28 29 29 29 29 29 28 28
9 10 11 12 14 14 14 12 8 7 8 6 6 9 8 4 4 4 4 7 8 8 10 11 12 12 13 13 15 16 16 17 18 19 19 18 17 15 13 10 6 3 1 4 6 8 8 6 6 8 9 12 14 15 16 18 20 22 23 24 25 26 29 30 30 30 31 31 31 31 32 31 29 26 25 23 23 26 30 31 32 33 32 31 30 27 26 26 28 28 28 29 29 28 28 28 28
8 5 7 11 13 13 13 11 7 7 9 2 4 8 9 7 8 7 5 5 7 8 9 10 11 12 13 14 14 16 17 18 19 19 19 19 18 17 16 14 11 8 5 2 2 4 5 5 4 5 7 8 10 11 12 15 17 19 20 21 21 22 23 24 25 26 27 28 28 29 29 28 25 24 23 22 23 26 29 30 31 33 32 32 30 28 27 27 27 27 27 27 27 27 27 28 27
7 2 4 8 10 11 11 9 8 7 9 6 6 8 9 11 10 4 5 6 8 8 8 9 10 12 13 14 14 15 17 18 19 20 20 20 20 20 19 18 15 11 8 6 5 5 5 4 4 3 5 6 7 7 8 10 13 15 17 18 19 20 21 22 22 21 21 22 23 23 23 22 21 21 21 22 22 24 27 29 31 33 33 33 30 29 29 28 27 26 26 26 25 26 27 27 26
6 3 2 5 5 8 8 7 9 6 7 9 8 7 7 10 8 4 6 7 6 7 8 8 10 12 13 13 14 14 15 16 18 20 21 21 21 21 20 19 16 12 10 9 8 7 6 4 3 3 3 4 4 5 6 9 11 13 15 17 18 18 19 19 17 16 17 17 18 18 18 18 18 19 19 19 20 22 24 27 30 32 34 33 31 30 29 28 26 26 25 25 25 25 26 26 26
2 3 2 2 3 5 5 6 8 5 5 11 9 7 7 9 9 4 4 4 2 5 6 6 9 11 12 12 12 13 13 14 17 19 21 22 21 21 20 18 16 15 13 12 10 9 8 7 5 3 3 3 3 4 5 8 10 12 13 15 16 15 15 15 14 14 14 14 15 15 15 15 15 15 15 16 17 19 21 23 27 30 32 31 30 29 28 27 27 26 24 24 24 25 26 27 27
2 2 4 4 5 4 3 5 6 4 6 10 10 11 10 8 6 2 1 0 2 3 2 5 7 9 10 10 11 12 13 14 16 18 20 21 21 20 19 18 18 17 15 13 12 12 10 9 8 6 4 4 3 4 5 6 8 9 11 12 13 13 12 12 12 12 12 12 12 12 11 11 11 11 12 13 14 16 18 19 22 26 29 29 29 28 28 27 27 26 24 23 24 24 25 25 26
1 4 4 4 5 3 3 4 4 5 7 6 5 7 11 10 3 3 2 2 2 2 1 4 5 7 8 9 11 11 12 14 17 19 21 21 21 21 20 20 19 18 16 15 15 14 12 12 10 6 6 5 4 3 4 5 6 8 9 10 10 10 10 10 10 9 8 8 8 7 7 7 7 8 9 10 11 14 16 17 18 22 26 29 30 29 28 27 27 25 24 23 23 23 23 23 24
4 4 3 4 4 2 4 4 4 6 6 1 1 2 8 10 2 3 2 1 2 2 3 4 4 5 7 9 10 10 12 15 19 21 22 23 23 23 22 22 21 20 19 17 16 15 14 13 10 8 8 7 4 3 2 3 4 5 6 7 8 8 8 7 7 6 6 5 5 5 5 5 6 6 6 8 9 11 12 13 14 17 21 25 28 30 29 28 27 25 24 22 21 21 22 23 23
5 5 4 5 4 3 6 6 5 6 3 1 2 0 5 7 1 3 3 3 4 4 5 4 5 6 6 7 8 9 12 15 18 20 21 23 23 23 23 22 22 21 20 18 17 16 14 13 12 10 9 7 5 4 2 1 2 2 3 4 5 6 6 6 6 6 5 5 4 4 5 5 6 6 7 8 9 10 10 9 10 13 16 20 24 29 30 29 29 29 28 26 24 23 23 24 25
4 3 3 6 5 5 7 6 6 6 4 1 4 2 4 4 1 3 4 6 6 5 5 5 5 5 5 6 6 8 11 14 16 18 20 22 23 23 23 23 22 21 20 19 18 16 15 14 12 10 9 8 5 4 3 2 1 1 1 2 3 4 5 6 6 6 6 6 6 6 6 6 7 8 8 9 9 11 12 11 10 11 13 16 20 25 28 28 29 30 30 28 26 26 25 25 24
2 2 3 5 4 4 5 6 6 6 7 4 4 4 4 0 3 5 6 6 6 5 5 6 5 5 4 6 7 9 11 13 16 18 20 22 22 23 24 23 23 22 21 20 19 18 16 15 13 11 10 9 6 5 3 2 2 1 0 1 2 3 4 5 6 7 7 7 7 8 8 8 8 9 9 9 10 11 13 13 12 12 13 14 17 22 25 26 27 27 27 26 26 25 24 24 23
2 3 4 1 1 3 5 7 4 3 7 5 5 7 3 2 3 6 7 6 6 6 5 6 5 5 5 6 7 9 11 12 15 17 19 20 21 23 23 23 23 22 21 21 20 19 17 16 14 12 11 9 8 7 5 4 3 1 1 1 2 3 4 5 6 6 7 8 8 9 9 9 9 9 10 10 11 12 14 14 13 13 13 13 14 18 23 25 25 26 26 26 26 24 23 23 23
2 4 2 2 1 2 3 5 3 4 7 6 6 10 7 4 3 5 8 7 7 7 6 6 6 5 6 7 8 9 9 11 13 15 17 19 20 21 22 22 21 21 21 21 20 19 18 17 15 14 12 11 10 8 7 6 4 3 2 2 2 2 3 4 5 6 7 8 9 9 10 10 10 11 11 11 12 13 15 15 15 15 14 14 14 15 19 22 24 25 25 26 26 24 23 23 23
2 1 1 1 3 3 3 3 5 6 8 7 7 7 7 7 4 6 11 11 9 8 7 7 6 6 6 7 7 7 8 9 10 13 15 18 19 19 20 20 20 20 19 20 19 18 18 17 16 15 15 14 13 11 9 8 7 6 5 3 2 2 2 3 4 6 7 8 9 10 11 12 12 12 13 13 14 14 15 16 17 17 17 17 16 16 17 18 20 22 23 23 24 23 23 23 23
1 1 2 2 3 5 3 2 3 4 7 8 8 6 5 6 3 5 9 10 10 10 8 7 6 6 6 6 7 6 7 8 9 11 14 16 17 17 17 18 17 17 17 18 17 17 17 17 17 16 16 15 14 13 12 11 10 9 8 6 4 3 2 2 2 3 5 6 7 9 10 12 12 13 14 15 16 16 17 17 18 19 19 19 18 18 18 18 19 20 20 20 20 21 22 23 23
4 5 5 4 3 2 3 3 3 5 7 7 7 8 6 1 1 3 6 7 9 10 9 7 7 7 7 7 7 6 7 8 8 10 12 14 15 15 16 16 16 16 15 15 15 15 16 16 16 16 15 14 14 14 13 13 12 11 9 8 7 6 5 3 2 0 2 3 4 6 7 9 10 11 12 14 15 16 17 18 19 20 20 20 20 20 20 20 21 21 21 21 21 22 23 24 24
7 8 7 8 6 3 5 6 5 5 6 6 6 10 6 2 2 2 5 6 6 9 9 8 9 9 8 7 7 7 7 8 8 9 11 13 14 14 14 14 14 14 14 14 14 14 14 14 14 14 13 13 14 13 13 13 12 10 10 9 9 8 7 6 4 3 2 1 0 2 3 4 5 7 8 10 12 14 15 17 19 20 21 22 22 21 21 21 22 22 23 23 23 24 25 26 26
Wind_Direction
214 210 207 200 189 176 166 137 179 225 229 243 235 241 222 185 240 254 234 215 215 310 330 301 314 275 263 273 282 284 280 266 262 257 272 317 313 299 289 288 260 220 210 206 204 204 204 203 203 203 202 201 199 198 196 196 198 198 198 198 197 195 195 197 200 202 204 208 212 211 208 204 198 192 189 185 178 171 167 168 172 175 173 173 174 172 169 165 162 160 159 155 151 152 150 144 140
213 212 208 182 181 183 167 131 194 218 218 240 235 237 221 151 208 231 235 225 191 202 298 305 297 269 261 270 279 282 272 250 254 266 276 285 283 282 282 290 269 226 209 202 201 200 201 202 204 205 203 201 200 202 201 198 198 198 200 202 201 199 198 201 204 209 211 213 216 211 204 200 195 192 185 177 172 169 171 174 175 176 175 175 176 176 172 167 164 160 158 155 152 152 151 148 140
215 216 223 220 178 165 156 161 227 225 220 236 233 221 195 201 226 225 230 234 209 221 272 297 289 268 257 257 259 268 273 252 251 259 266 269 267 268 271 277 261 228 211 199 195 194 195 200 204 205 205 203 205 208 204 199 198 199 202 203 204 203 203 206 210 214 217 220 218 208 200 196 192 189 179 172 170 171 176 176 177 179 177 178 178 178 174 170 168 164 164 164 157 152 150 147 139
208 210 215 215 185 161 156 205 233 234 231 237 239 201 183 223 234 235 238 246 246 250 268 284 278 259 256 265 277 276 271 260 256 258 260 262 260 259 262 266 252 228 215 198 193 191 192 202 204 205 206 204 207 211 205 200 200 202 204 205 205 204 206 210 214 218 222 224 219 207 197 193 190 183 174 172 172 174 177 177 180 181 180 182 179 175 172 171 171 167 169 170 165 154 151 145 139
195 201 189 184 196 198 206 230 229 231 235 235 244 183 179 225 240 253 263 262 254 253 257 262 274 264 261 269 269 270 270 262 261 259 257 259 257 256 258 260 247 227 219 203 195 190 193 203 201 202 207 205 208 210 205 203 204 204 205 206 206 206 208 212 217 221 225 225 219 208 196 191 186 177 174 176 176 177 177 178 182 181 181 182 176 174 170 168 171 174 178 177 174 162 156 149 144
187 193 170 175 214 243 230 233 224 229 236 234 244 167 179 239 257 281 275 264 250 240 246 246 268 285 273 261 250 258 273 267 264 265 263 265 258 255 256 253 245 227 216 208 202 197 199 203 198 201 206 209 212 211 208 206 208 207 207 208 208 209 211 215 220 224 226 225 218 207 196 188 180 176 178 181 181 180 178 179 182 181 181 178 176 177 173 172 179 183 185 184 181 169 161 156 153
177 183 168 184 206 212 235 237 233 236 231 224 245 274 285 286 295 287 273 268 238 226 238 240 263 288 277 270 264 268 277 267 263 268 270 280 266 251 247 241 242 229 218 212 207 204 205 204 199 201 205 209 214 214 211 210 211 209 208 209 211 212 214 218 222 225 226 225 219 207 193 183 181 181 182 185 186 183 181 181 181 181 179 178 180 183 181 183 188 190 191 188 176 169 166 164 160
178 175 185 216 212 207 240 242 241 246 227 208 247 259 275 309 285 276 278 277 262 258 253 248 256 276 279 274 268 277 284 272 264 268 268 276 272 255 250 243 241 232 222 214 209 206 206 205 202 203 205 208 211 214 214 212 213 211 209 210 212 214 216 218 219 221 223 223 217 205 191 184 186 186 186 189 189 186 185 185 184 182 180 181 182 186 192 193 196 203 205 191 175 171 169 167 165
185 184 190 225 229 220 238 243 243 246 242 242 242 251 263 271 268 272 276 274 273 276 267 246 226 255 287 275 268 280 283 276 270 271 269 270 268 260 250 238 238 234 219 209 206 204 206 206 204 205 206 209 209 209 210 210 211 212 212 213 216 217 217 217 216 216 217 217 210 203 196 190 190 190 191 192 190 189 187 186 186 182 182 182 182 191 201 202 208 218 214 192 176 172 168 165 165
190 207 219 229 237 233 235 241 241 242 242 247 249 257 264 253 249 261 268 273 274 276 275 259 224 248 278 287 281 284 286 283 275 272 271 269 267 261 240 219 219 230 218 206 202 200 204 206 204 205 206 209 208 206 206 206 208 212 214 216 218 218 217 215 213 211 209 208 205 203 198 193 192 191 194 196 194 192 189 189 184 180 185 186 190 200 206 208 213 221 212 191 178 170 166 166 165
199 205 234 238 234 236 238 240 236 240 231 233 257 256 258 253 249 257 258 266 273 272 267 266 238 248 266 280 282 288 297 292 276 269 268 269 271 265 241 216 206 213 213 207 203 199 200 201 202 204 206 208 208 208 207 206 208 212 215 215 217 216 215 212 209 206 202 203 204 202 194 191 192 193 197 197 197 198 192 188 184 180 182 185 198 207 208 210 211 217 206 189 182 176 175 174 171
216 200 209 238 239 242 247 253 249 254 246 235 253 253 253 245 237 249 251 255 267 267 255 243 247 269 263 269 286 295 300 294 278 266 256 261 272 261 240 220 206 203 206 206 206 204 200 198 198 200 204 207 210 211 210 210 211 213 215 216 216 215 211 207 204 201 199 201 201 197 192 190 192 197 199 197 198 200 187 179 182 181 181 192 208 208 206 211 210 212 201 189 187 186 186 182 177
227 218 217 243 246 254 256 261 265 270 264 245 247 254 252 235 232 249 254 252 257 260 253 236 241 273 272 281 292 292 294 293 286 270 251 251 255 243 227 217 207 202 202 203 205 205 202 201 200 201 203 206 210 212 213 214 214 216 217 218 217 214 209 205 200 197 198 200 197 193 193 192 196 200 201 199 193 188 179 179 186 186 191 202 206 200 201 215 219 213 203 195 191 190 192 191 202
228 232 239 250 246 256 261 261 267 265 266 251 247 258 250 239 245 257 255 253 254 247 250 249 233 252 266 282 290 295 307 306 293 275 255 244 234 224 220 214 206 204 203 203 205 207 205 206 207 206 207 210 213 215 216 215 216 218 220 220 218 212 207 204 201 200 199 198 194 193 196 198 203 203 199 197 188 182 182 187 192 195 200 199 202 209 202 208 215 214 214 204 190 191 203 228 273
229 232 244 253 249 252 249 250 262 262 266 261 258 262 255 254 256 256 245 252 266 249 252 259 214 237 294 304 303 310 313 313 302 280 255 238 226 217 215 210 206 204 204 205 207 208 208 211 211 211 212 213 215 216 217 217 217 219 222 223 220 212 207 206 203 203 199 194 193 196 202 206 209 208 200 194 189 188 185 181 183 190 197 201 215 216 198 197 203 213 223 211 196 201 222 256 282
226 233 244 250 252 252 239 231 246 256 257 200 250 256 263 264 255 251 247 249 267 254 248 249 218 246 290 290 299 307 304 305 304 289 258 236 226 217 213 207 206 205 206 208 208 209 210 212 213 215 215 212 211 212 215 218 217 220 224 226 226 215 207 208 204 203 199 192 194 197 205 211 212 213 205 198 191 185 181 177 178 184 195 206 214 208 205 211 214 226 232 223 215 219 243 273 283
217 230 245 250 248 246 242 231 227 252 260 211 235 236 245 268 254 247 253 247 251 255 248 245 242 256 274 282 297 302 300 298 296 293 272 244 228 220 216 210 208 208 211 211 210 210 212 213 212 215 216 211 209 209 213 219 217 220 224 229 233 218 207 211 206 202 198 195 197 197 206 212 214 215 208 202 192 184 187 187 184 193 204 207 210 216 225 229 230 237 239 232 227 236 262 275 276
213 229 244 247 247 248 247 239 232 249 263 244 237 228 234 264 269 257 259 244 236 248 248 246 257 268 277 284 292 293 294 293 288 286 279 259 238 226 220 215 214 214 214 214 215 215 214 215 214 213 215 213 211 211 213 217 218 221 223 230 236 219 208 211 206 200 197 196 198 196 207 213 214 217 216 213 205 202 213 211 194 198 206 203 214 229 235 239 238 240 246 241 236 256 267 264 260
219 239 246 244 251 253 241 240 243 241 254 258 253 243 238 258 277 275 270 263 249 250 249 244 257 267 274 280 287 289 288 289 286 280 274 267 256 242 231 224 222 220 221 220 220 220 218 218 218 216 217 215 212 214 217 218 219 222 226 232 236 221 209 209 206 200 197 196 198 201 211 214 214 218 223 226 222 223 227 220 209 211 215 218 234 241 235 233 233 241 252 249 249 263 260 251 247
226 232 243 248 250 249 233 239 249 244 252 263 260 257 252 260 272 265 268 276 267 262 257 252 264 270 273 278 286 289 286 287 286 280 272 267 263 256 248 241 235 230 228 226 224 226 224 223 224 220 220 219 215 216 220 221 221 222 227 233 236 224 210 210 209 203 200 201 207 216 217 215 217 218 222 228 232 234 230 224 225 231 237 243 251 250 240 232 236 248 253 254 262 259 247 241 238
229 227 247 259 252 251 238 237 249 249 252 260 263 266 265 266 264 255 265 275 269 267 258 253 269 278 280 280 284 287 287 285 284 282 275 269 264 260 258 255 249 241 235 233 230 232 230 227 228 226 224 222 218 218 221 223 223 224 227 231 229 217 208 209 210 204 203 211 217 219 218 217 220 220 225 233 237 235 232 232 237 244 249 252 251 248 245 241 244 249 251 261 265 247 235 232 229
239 238 254 262 252 261 250 231 241 248 246 250 255 258 266 270 260 254 256 260 266 271 260 257 269 274 276 277 279 282 282 282 282 281 279 276 270 263 259 255 254 250 243 238 234 234 232 230 231 230 228 225 222 220 222 223 223 224 227 229 221 211 207 210 214 211 209 218 224 221 221 224 223 223 229 235 236 233 235 241 245 250 252 251 248 247 247 245 246 248 255 263 252 233 229 227 226
252 251 253 255 250 257 260 247 241 245 243 247 252 257 268 269 265 263 253 254 262 264 263 269 270 268 271 272 274 276 276 277 277 277 279 279 275 271 265 257 252 252 248 242 236 231 230 232 234 233 230 229 226 223 224 224 223 224 226 228 222 216 217 219 221 219 218 226 231 226 230 233 228 227 232 232 231 233 238 242 245 247 248 249 249 248 248 247 249 253 258 254 236 227 227 226 225
254 261 260 260 263 262 267 274 266 263 255 258 266 269 267 259 266 269 257 259 263 258 263 270 268 267 271 271 270 271 271 272 273 274 276 276 276 276 271 260 254 254 253 247 239 233 230 232 233 234 231 230 228 225 226 225 223 223 225 228 227 225 227 228 229 229 232 239 235 230 236 239 232 229 233 231 230 234 238 239 240 244 248 248 248 248 249 250 253 255 250 237 228 226 225 224 223
231 257 269 269 271 269 272 280 281 280 273 272 272 267 261 258 266 269 264 267 266 261 266 270 272 271 269 268 267 268 269 270 271 272 273 273 273 271 264 258 255 255 255 250 244 239 235 234 234 234 234 231 229 227 226 225 222 222 224 228 230 228 229 232 237 241 245 247 239 233 239 242 240 232 230 231 232 235 237 238 239 244 246 244 244 246 248 251 251 247 237 227 224 224 223 223 223
224 257 281 282 274 274 276 275 275 273 270 265 265 266 263 261 263 268 271 268 260 260 263 264 266 264 263 264 264 266 267 268 269 270 270 270 268 266 263 261 257 256 256 252 247 243 239 236 234 235 235 234 232 228 225 224 222 222 223 225 228 228 230 233 238 241 247 251 242 234 235 241 246 240 233 232 233 236 238 241 244 245 243 239 240 244 247 248 244 236 227 223 223 223 224 224 225
298 290 289 284 278 277 271 269 268 266 267 252 254 269 268 262 251 258 279 240 222 246 254 258 259 258 260 263 264 266 266 267 269 269 268 267 266 267 267 265 262 260 257 252 248 246 243 240 237 235 236 238 237 231 227 225 223 222 223 224 226 229 233 236 235 235 241 247 240 235 233 234 241 242 240 237 234 237 241 244 247 246 241 238 241 244 244 240 235 229 223 221 221 224 225 226 228
312 313 298 286 280 275 256 258 263 259 262 245 246 267 268 259 242 250 260 238 268 285 270 270 269 266 267 267 269 269 267 266 265 265 265 266 267 269 269 267 265 263 260 256 252 248 246 244 241 239 238 241 243 239 232 228 225 223 223 224 227 231 236 237 235 234 240 243 237 234 232 230 236 243 246 243 239 242 244 243 242 241 239 239 242 241 235 232 229 225 223 223 224 225 227 229 230
302 305 297 290 287 280 254 248 251 241 248 232 238 268 263 249 244 249 248 257 273 276 271 272 268 268 266 264 265 264 264 264 262 264 267 270 272 273 274 273 271 268 266 263 258 253 250 249 248 245 242 242 244 245 240 232 228 227 226 226 227 232 236 235 235 236 242 243 238 235 232 232 238 244 249 249 247 247 245 241 237 235 236 237 238 234 226 224 224 224 225 227 228 229 230 231 232
292 285 285 293 288 282 253 232 227 226 241 202 206 267 265 258 257 246 236 256 267 261 263 268 267 267 262 262 265 266 271 275 277 282 284 286 286 285 283 281 279 276 272 268 262 256 253 252 252 250 248 246 244 244 243 239 234 230 230 231 231 233 234 233 233 235 237 238 235 231 231 234 239 243 248 252 251 249 243 237 232 230 231 232 231 226 221 220 222 225 229 231 233 234 234 234 235
285 283 274 274 274 281 136 151 181 217 235 195 208 260 270 276 294 156 207 252 250 255 265 269 271 274 272 275 278 281 289 296 301 304 303 302 298 294 290 287 285 280 276 271 266 260 255 253 253 254 252 251 248 244 243 242 238 232 229 231 233 235 235 233 233 235 235 234 230 227 230 237 242 247 251 253 252 248 240 233 228 226 226 226 225 222 220 221 224 228 231 233 234 235 236 237 237
262 270 269 255 255 268 216 160 180 239 259 188 212 258 275 283 317 98 189 252 252 265 274 279 283 286 289 292 294 294 296 297 299 302 302 298 291 286 283 281 280 276 273 270 267 261 257 255 255 255 255 253 252 248 244 242 239 235 230 229 230 232 234 234 235 238 238 234 229 231 239 246 250 252 252 253 252 246 238 232 227 223 221 221 221 221 222 225 228 230 232 233 233 235 236 237 237
231 236 267 267 262 276 275 181 147 235 270 216 222 257 277 284 27 81 113 286 294 289 284 284 285 286 288 291 294 295 295 295 298 301 299 291 282 276 272 270 269 269 269 267 265 262 259 257 255 254 254 253 253 250 246 243 241 236 232 230 229 229 231 234 237 240 241 239 237 243 250 251 252 252 250 249 248 243 236 231 227 222 219 219 220 221 225 228 231 232 232 232 233 234 234 235 237
245 229 256 264 262 273 279 261 147 168 239 247 246 258 270 270 267 278 280 281 285 285 283 284 286 286 284 285 286 285 287 295 299 294 289 285 279 276 273 270 266 264 264 264 264 263 261 259 256 253 252 252 253 252 248 244 242 237 232 229 230 230 231 234 236 239 241 242 246 247 244 242 246 251 251 248 245 240 234 229 226 222 219 219 220 223 227 230 232 233 233 233 233 234 234 234 235
278 274 275 277 268 266 270 266 225 172 253 264 266 265 269 271 272 278 280 280 279 278 281 284 284 283 282 282 283 285 295 312 302 292 291 286 281 278 276 272 266 262 261 261 261 262 262 260 258 255 254 252 252 252 249 245 241 236 232 229 229 230 231 232 234 237 239 240 244 243 238 238 246 251 250 249 245 238 232 228 224 222 221 221 222 225 228 230 233 234 233 233 234 234 234 234 234
286 289 285 284 282 274 271 272 258 257 274 270 267 268 270 273 277 280 281 282 281 279 280 278 276 278 281 285 295 309 323 321 303 300 298 289 282 277 275 272 269 265 263 262 261 261 262 261 257 252 249 247 246 246 246 245 240 234 231 228 228 229 230 231 232 236 239 240 242 243 242 243 246 250 249 248 245 236 231 229 224 223 224 224 226 228 230 232 234 236 234 233 233 233 233 232 232
284 283 278 277 278 275 275 278 258 211 260 270 266 270 272 275 280 277 278 284 282 280 279 275 275 283 292 313 338 337 331 322 312 306 299 290 283 275 272 269 266 263 263 263 261 260 260 260 258 251 243 239 238 237 242 246 241 234 230 227 228 228 230 231 230 234 240 241 242 244 247 245 240 243 247 247 244 235 229 228 226 225 225 226 228 230 232 233 234 235 234 232 231 233 233 232 231
267 268 274 275 272 274 276 277 264 204 231 269 272 274 274 276 278 271 275 278 276 284 296 300 304 318 348 6 3 353 348 342 332 321 309 302 291 280 271 265 260 257 258 260 257 254 253 254 257 252 239 231 232 233 241 248 244 239 234 229 228 229 231 233 232 235 241 242 240 238 244 245 239 238 243 244 242 236 229 226 227 227 227 229 230 230 231 232 232 232 231 230 229 231 233 234 233
260 260 269 270 270 282 279 268 260 224 225 269 277 279 278 281 276 264 264 264 272 325 29 30 13 22 28 20 15 11 10 11 8 2 354 345 329 309 287 269 258 252 250 253 253 250 247 247 251 247 231 223 227 234 243 248 244 242 240 234 231 230 232 234 235 238 242 243 239 236 240 244 240 237 239 240 238 237 232 227 226 228 229 230 230 230 230 231 232 231 230 230 229 229 230 231 231
250 252 261 268 270 279 280 265 226 206 226 269 286 286 281 283 268 250 258 259 285 66 67 56 47 43 37 31 27 20 16 18 20 18 16 14 11 2 342 308 269 251 245 245 245 244 245 246 247 245 237 230 229 234 243 246 244 243 241 235 233 232 233 234 236 238 241 243 242 239 241 243 242 241 241 240 239 239 235 229 224 226 230 231 231 231 231 234 235 236 234 231 230 228 227 227 226
247 243 249 265 271 269 274 279 280 259 244 248 269 280 279 278 246 224 228 110 96 83 70 56 48 40 36 35 30 26 24 24 23 22 22 24 24 23 19 9 328 265 244 240 237 232 235 243 247 247 247 245 241 242 248 250 248 245 240 236 234 233 233 234 236 238 241 244 245 245 245 245 244 244 246 246 245 243 239 233 225 223 228 231 231 232 232 235 237 238 237 233 231 230 229 228 226
263 242 235 252 267 270 273 279 287 289 271 230 230 275 285 267 221 208 159 122 106 82 65 51 38 33 32 29 24 24 28 32 32 28 27 28 30 31 32 31 31 28 262 232 227 219 215 219 238 250 252 252 250 251 254 254 252 249 244 241 237 234 233 233 235 238 239 241 246 250 251 249 247 247 251 252 251 247 242 236 226 222 225 228 230 231 231 234 236 236 235 234 233 232 232 231 229
276 239 214 239 256 264 268 275 273 274 289 263 184 273 289 281 274 253 219 173 125 93 65 51 36 32 30 26 23 20 25 34 37 35 34 35 34 35 35 35 39 43 46 77 160 186 186 185 200 237 251 252 253 255 254 251 250 249 248 247 245 242 240 238 237 238 240 242 245 250 253 253 252 254 257 258 255 249 243 236 226 223 226 227 229 229 229 233 236 237 237 235 234 233 233 233 232
275 165 186 238 248 256 260 267 263 266 292 279 213 245 273 282 285 237 200 206 148 105 56 49 37 31 31 27 24 22 26 33 35 37 40 40 40 40 40 38 37 39 48 67 90 113 135 155 165 192 225 237 247 253 256 255 252 251 250 248 246 245 243 243 243 243 244 246 248 252 256 258 260 261 262 262 258 252 246 239 231 228 229 228 229 227 226 231 235 238 239 236 234 234 234 234 234
272 117 176 247 246 261 263 262 266 271 289 277 244 230 252 274 274 180 184 217 165 95 50 42 31 28 29 22 21 23 27 34 38 41 44 47 49 48 48 47 43 44 50 60 70 83 95 109 126 155 187 203 220 232 241 244 243 245 246 245 244 243 241 244 249 251 253 254 254 256 258 259 261 261 260 258 256 253 249 244 238 235 233 229 228 228 229 232 235 238 239 238 235 234 234 234 234
277 110 182 240 228 252 252 252 268 267 255 270 261 227 248 280 276 242 212 217 144 69 54 47 33 32 29 20 21 22 25 36 44 49 51 53 56 57 58 57 54 52 52 56 64 71 79 84 85 93 124 149 169 192 214 225 229 233 236 238 241 243 244 247 250 250 251 254 255 256 257 258 259 258 257 253 249 248 247 245 242 239 235 230 229 231 234 235 235 236 238 239 238 237 236 234 233
76 166 242 253 234 228 228 241 258 252 243 262 254 224 236 274 282 292 22 86 18 9 59 62 38 34 30 24 24 22 25 37 47 54 59 61 63 64 65 65 64 62 61 61 64 66 69 72 71 75 96 118 146 173 195 208 217 225 229 233 239 243 246 249 251 253 253 255 257 258 258 260 261 259 256 251 244 242 243 246 246 241 236 233 233 236 237 237 236 235 235 237 239 239 239 238 236
209 241 269 275 252 224 223 225 207 231 250 264 259 228 234 253 260 83 70 59 10 327 46 64 46 38 33 29 29 27 27 37 50 57 60 62 64 65 66 67 67 67 65 64 64 64 65 67 66 70 91 103 121 154 184 203 212 219 224 228 232 238 244 247 252 259 263 266 268 271 272 271 271 266 261 253 245 242 243 248 250 247 242 239 238 238 239 237 234 229 228 231 234 236 238 239 238
209 225 232 246 253 231 220 222 207 234 252 290 28 260 241 251 268 92 123 111 89 77 76 76 67 53 43 37 31 30 34 44 53 57 59 62 61 62 63 64 65 66 65 66 67 68 68 68 70 76 87 92 99 120 158 199 213 221 224 225 225 228 233 237 244 251 258 268 272 277 282 282 281 278 271 263 250 242 244 252 257 257 254 249 245 243 242 240 236 231 230 230 232 234 236 238 239
191 212 222 233 249 258 250 253 252 251 256 102 91 46 251 253 267 101 138 126 115 106 96 92 83 71 57 47 36 35 43 48 52 56 59 63 63 64 64 64 65 66 67 68 69 70 71 72 74 77 82 84 88 100 120 160 199 220 227 233 230 228 230 229 233 238 240 247 254 261 268 272 276 274 269 264 249 234 233 247 260 265 264 260 255 249 245 243 240 237 234 231 231 234 236 237 238
208 206 234 258 262 263 269 272 270 279 292 211 145 165 255 257 134 116 127 122 123 118 111 108 97 90 76 61 49 44 46 47 52 57 60 65 67 68 68 68 67 66 67 69 71 73 74 74 75 78 83 84 85 89 96 113 127 164 227 248 244 242 244 241 241 241 240 240 240 242 245 247 250 254 256 256 249 236 233 242 258 267 266 263 258 251 244 239 236 233 231 229 230 232 235 237 238
218 147 213 256 252 235 264 274 272 289 293 261 191 229 267 328 120 134 134 130 129 129 126 122 109 98 86 69 56 50 46 48 58 65 66 68 71 71 72 71 69 68 67 67 68 71 72 74 76 79 82 84 85 87 88 92 97 109 224 249 253 255 254 254 254 253 253 252 249 247 245 242 239 241 242 242 241 237 236 244 256 264 264 261 258 250 241 235 231 230 231 232 233 234 235 237 238
159 193 233 255 126 221 258 269 255 259 274 260 227 248 250 129 165 160 154 153 144 144 142 131 117 102 92 73 60 56 52 52 61 69 71 73 75 74 74 73 72 72 70 69 69 69 71 73 75 77 80 84 86 84 85 85 87 100 158 204 230 241 246 251 253 254 256 255 255 254 252 251 246 241 238 235 235 235 235 241 248 255 258 257 256 250 240 233 230 232 234 234 234 234 235 235 236
232 236 258 75 94 243 260 270 261 245 265 266 246 255 254 247 233 163 173 187 167 159 151 135 127 112 96 80 70 64 62 62 65 72 76 78 79 78 77 76 76 75 74 73 72 72 73 73 74 77 77 77 78 78 81 83 86 100 113 136 183 207 225 235 239 243 248 249 251 253 253 254 252 249 245 240 238 240 241 243 244 247 250 251 252 249 241 234 234 236 236 233 231 230 232 234 233
291 293 78 134 248 245 210 246 277 268 271 278 264 256 250 251 245 170 189 196 172 162 157 148 141 123 108 95 85 74 71 70 66 70 76 80 82 82 82 82 80 80 78 76 75 74 74 73 73 74 73 73 74 75 78 80 81 85 88 94 114 150 186 212 224 233 239 240 243 245 247 248 249 249 248 245 243 243 243 245 246 248 249 250 251 251 248 244 242 241 239 234 231 231 233 235 235
134 185 197 221 260 267 248 237 269 266 275 283 277 266 252 253 251 161 182 183 167 165 162 155 143 124 117 109 99 86 77 73 68 70 77 82 85 86 86 85 83 82 81 80 78 76 76 75 73 73 73 74 74 72 73 73 73 74 74 79 85 94 115 153 203 226 235 238 239 239 242 244 244 245 244 244 244 243 243 245 247 250 253 254 255 254 254 253 251 248 246 243 240 240 242 244 243
219 226 226 218 205 257 274 251 237 250 267 276 276 274 267 250 54 128 152 156 164 169 161 149 139 128 121 115 108 98 88 81 74 76 82 86 89 88 87 86 84 82 81 80 78 76 76 76 74 73 73 72 71 69 68 67 67 68 69 70 72 74 76 76 79 157 230 234 235 239 242 244 246 248 247 246 246 245 244 244 245 248 251 254 255 255 254 254 253 251 249 248 247 246 247 248 248
251 247 240 237 228 229 256 249 223 222 249 259 267 274 275 108 109 142 136 146 160 159 152 142 139 136 127 120 114 105 96 88 83 86 91 93 92 91 89 88 86 84 81 79 77 75 74 72 71 70 69 67 67 65 64 64 64 63 63 64 64 66 66 64 64 65 70 92 206 244 252 255 257 258 258 256 254 251 249 248 248 248 250 251 252 252 252 251 251 251 250 249 248 246 247 248 248